Flag for Cyprus Weather past 2 weeks in Nicosia, Cyprus

Now
91 °F

Scattered clouds.


Feels Like: 89 °F
Forecast: 65 / 84 °F
Wind: 14 mph from Southeast

Location: Ercan

Current Time: May 24, 2015 at 5:27:09 PM

Latest Report: May 24, 2015 at 4:50 PM


Visibility: N/A

Pressure: 29.86 "Hg

Humidity: 28%

Dew point: 54 °F

Location of NicosiaLocation

Historic Weather in Nicosia — Graph

°F

Nicosia temperature yesterday

Maximum temperature yesterday: 93 °F (at 2:20 PM)
Minimum temperature yesterday: 66 °F (at 1:20 AM)
Average temperature yesterday: 78 °F

Past Weeks' High & Low Weather Summary

 TemperatureHumidityPressure
High100 °F (May 19, 1:50 PM)100% (May 11, 4:50 AM)30.21 "Hg (May 11, 4:50 AM)
Low52 °F (May 16, 5:20 AM)9% (May 19, 2:20 PM)29.65 "Hg (May 9, 4:20 PM)
Average73 °F56%29.88 "Hg
* Reported May 9 4:20 PM — May 24 4:20 PM, Nicosia, Weather by CustomWeather, © 2015

Note: Actual official high and low records may vary slightly from our data, if they occured in-between our weather recording intervals... More about our weather records

Advertising

Nicosia weather history for previous 24 hours

 ConditionsComfort  
Time TempWeatherWind HumidityBarometerVisibility
4:20 PM
Sun, May 24
90 °FScattered clouds.13 mph29%29.86 "HgN/A
3:50 PM91 °FPassing clouds.12 mph32%29.86 "HgN/A
3:20 PM91 °FPassing clouds.6 mph32%29.86 "HgN/A
2:50 PM88 °FSunny.8 mph38%29.89 "Hg10 mi
2:20 PM90 °FSunny.7 mph36%29.89 "Hg10 mi
1:50 PM86 °FPassing clouds.5 mph43%29.89 "HgN/A
1:20 PM86 °FSunny.6 mph46%29.89 "Hg10 mi
12:50 PM86 °FSunny.5 mph40%29.89 "Hg10 mi
12:20 PM84 °FSunny.6 mph40%29.89 "Hg10 mi
11:50 AM84 °FSunny.6 mph43%29.89 "Hg10 mi
11:20 AM82 °FPassing clouds.6 mph42%29.89 "HgN/A
10:50 AM82 °FSunny.6 mph45%29.89 "Hg10 mi
10:20 AM82 °FSunny.7 mph42%29.89 "Hg10 mi
9:50 AM79 °FSunny.7 mph54%29.89 "Hg10 mi
9:20 AM77 °FSunny.No wind57%29.89 "Hg10 mi
8:50 AM75 °FSunny.6 mph61%29.89 "Hg10 mi
8:20 AM73 °FPassing clouds.6 mph65%29.89 "HgN/A
7:50 AM72 °FPassing clouds.6 mph73%29.89 "HgN/A
7:20 AM68 °FPassing clouds.3 mph83%29.86 "HgN/A
6:50 AM64 °FSunny.No wind88%29.86 "Hg10 mi
6:20 AM63 °FClear.No wind83%29.86 "Hg10 mi
5:50 AM61 °FClear.No wind77%29.86 "Hg10 mi
5:20 AM63 °FClear.No wind77%29.86 "Hg10 mi
4:50 AM61 °FClear.No wind77%29.86 "Hg10 mi
4:20 AM63 °FClear.No wind77%29.86 "Hg10 mi
3:50 AM64 °FClear.No wind83%29.86 "Hg10 mi
3:20 AM64 °FClear.No wind78%29.86 "Hg10 mi
2:50 AM63 °FClear.5 mph77%29.86 "Hg10 mi
2:20 AM64 °FClear.6 mph78%29.86 "Hg10 mi
1:50 AM63 °FClear.5 mph77%29.86 "Hg10 mi
1:20 AM66 °FClear.3 mph68%29.89 "Hg10 mi
12:50 AM66 °FClear.6 mph73%29.89 "Hg10 mi
12:20 AM70 °FClear.5 mph64%29.89 "Hg10 mi
11:50 PM
Sat, May 23
70 °FClear.6 mph64%29.89 "Hg10 mi
11:20 PM70 °FClear.3 mph69%29.89 "Hg10 mi
10:50 PM72 °FClear.9 mph65%29.86 "Hg10 mi
10:20 PM72 °FClear.12 mph65%29.86 "Hg10 mi
9:50 PM73 °FClear.10 mph61%29.86 "Hg10 mi
9:20 PM73 °FClear.10 mph61%29.86 "Hg10 mi
8:50 PM73 °FClear.8 mph57%29.86 "Hg10 mi
8:20 PM75 °FSunny.18 mph54%29.83 "Hg10 mi
7:50 PM77 °FSunny.17 mph51%29.83 "Hg10 mi
7:20 PM81 °FSunny.17 mph39%29.83 "Hg10 mi
6:50 PM86 °FSunny.16 mph27%29.80 "Hg10 mi
6:20 PM88 °FSunny.14 mph22%29.80 "Hg10 mi
5:50 PM90 °FPassing clouds.14 mph20%29.80 "HgN/A
5:20 PM91 °FPassing clouds.17 mph18%29.80 "HgN/A
Weather by CustomWeather, © 2015

See weather overviewHow to use our weather pages